Location: Unnamed
(51.0138°N, 13.7988°E)
Time: 11:27:15
(UTC+02:00)

NOSS 2-3 (C) - Pass Details

Date: 07 January 2020
Orbit: 581 x 1631 km, 63.4° (Epoch: 30 May)

Event Time Altitude Azimuth Distance (km) Brightness Sun altitude
Rises 06:04:33 0° 202° (SSW) 2,813 6.9 -18.2°
Reaches altitude 10° 06:06:42 10° 195° (SSW) 1,959 6.1 -17.9°
Maximum altitude 06:10:50 45° 123° (ESE) 916 4.9 -17.2°
Drops below altitude 10° 06:15:45 10° 52° (NE) 2,337 7.0 -16.5°
Sets 06:18:32 0° 46° (NE) 3,428 7.8 -16.1°
